29P/Schwassmann-Wachmann 1 (2019)

Japanese version
Home page
Updated on November 25, 2018

---------------------------------------------------------------------

* Profile

* Pictures

* Orbital Elements

Epoch 2019 Mar. 18.0 TT = JDT 2458560.5
T 2019 Mar. 7.75763 TT                                  MPCW
q   5.7668222            (2000.0)            P               Q
n   0.06662629     Peri.   47.77452     +0.99270154     -0.00957049
a   6.0261367      Node   312.39454     -0.05135051     +0.86841770
e   0.0430316      Incl.    9.36833     +0.10911815     +0.49574096
P  14.79
From 24209 observations 1902 Mar. 5-2018 Sept. 20, mean residual 0".6.

* Finding Charts

* Magnitudes Graph

        m1 = 4.0 + 5 log d + 7.5 log r

---------------------------------------------------------------------

The orbital elements are published on M.P.E.C. 2018-S50.
The charts are made with StellaNavigator Ver.8 (AstroArts).
The magnitudes graphs are made with Comet for Windows.

---------------------------------------------------------------------

Copyright(C) Seiichi Yoshida (comet@aerith.net). All rights reserved.